Location: Knowlton
(51.2333°N, 1.2667°E)
Time: 09:24:50
(UTC+00:00)

Cosmos 1844 Rocket - Pass Details

Date: 18 April 2021
Orbit: 825 x 844 km, 71.0° (Epoch: 16 May)

Event Time Altitude Azimuth Distance (km) Brightness Sun altitude
Exits shadow 23:39:36 27° 88° (E) 1,532 4.0 -27.5°
Drops below altitude 10° 23:43:25 10° 47° (NE) 2,437 5.5 -27.5°
Sets 23:46:08 0° 37° (NE) 3,377 6.6 -27.6°
